Regional Weather Roundup
Issued by NWS

Home | Current Version | Previous Version | Graphics & Text | Print | Product List | Glossary On
Versions: 1 2 3 4 5 6 7 8 9 10 11 12 13 14 15 16 17 18 19 20 21 22 23 24 25 26 27 28 29 30 31 32 33 34 35 36 37 38 39 40 41 42 43 44 45 46 47 48 49 50
000
ASUS43 KLOT 030600
RWRIL

ILLINOIS REGIONAL WEATHER ROUNDUP
NATIONAL WEATHER SERVICE CHICAGO/ROMEOVILLE IL
100 AM CDT MON AUG 03 2015

NOTE: "FAIR" INDICATES FEW OR NO CLOUDS BELOW 12,000 FEET WITH NO
SIGNIFICANT WEATHER AND/OR OBSTRUCTIONS TO VISIBILITY.

* THESE STATIONS ARE NOT UNDER NWS QUALITY CONTROL. THEY ALSO MAY NOT
  REPORT WEATHER SUCH AS PRECIPITATION OR FOG.

ILZ001-002-007-009-015-016-024-030700-
NORTHWEST ILLINOIS

CITY           SKY/WX    TMP DP  RH WIND       PRES   REMARKS
MOLINE         PTCLDY    75  61  61 W14       29.78R
6HR MIN TEMP:  73; 6HR MAX TEMP:  88; 6HR PCP:  0.18;

STERLING*      MOCLDY    77  70  78 NW8       29.74R
$$

ILZ003-004-008-010-011-017-018-030700-
NORTH CENTRAL ILLINOIS

CITY           SKY/WX    TMP DP  RH WIND       PRES   REMARKS
ROCKFORD       MOCLDY    74  64  71 CALM      29.78R
6HR MIN TEMP:  74; 6HR MAX TEMP:  87;

$$

ILZ005-006-012>014-019>023-030700-
NORTHEAST ILLINOIS

CITY           SKY/WX    TMP DP  RH WIND       PRES   REMARKS
CHICAGO-OHARE  CLOUDY    67  66  97 W3        29.75R
6HR MIN TEMP:  67; 6HR MAX TEMP:  87; 6HR PCP:  0.41;

CHICAGO-MIDWAY CLOUDY    70  64  81 W3        29.75R
6HR MIN TEMP:  68; 6HR MAX TEMP:  90;

AURORA         CLOUDY    70  64  81 E3        29.77R
6HR MIN TEMP:  70; 6HR MAX TEMP:  87; 6HR PCP:  0.20;

WAUKEGAN       MOCLDY    66  65  96 SW3       29.74R
6HR MIN TEMP:  65; 6HR MAX TEMP:  86; 6HR PCP:  0.82;

DUPAGE AIRPORT CLOUDY    67  65  93 SE3       29.76R
6HR MIN TEMP:  67; 6HR MAX TEMP:  86; 6HR PCP:  0.56;

WHEELING       NOT AVBL
NORTHERLY ISL    N/A     69  64  84 W7          N/A
$$

LMZ740>746-030700-
SOUTHERN LAKE MICHIGAN

STATION/POSITION SKY/WX   TEMP    WIND        PRES    VSBY  WAVE
                          AIR SEA DIR/SP/G                  HT/PER
                          (F)     (DEG/KT/KT) (MB)    (MI)  (FT/S)
HARRISON CRIB              66     270/ 16/ 18   N/A
BURNHAM HARBOR             69     270/  6/ 15   N/A
CALUMET HARBOR             66     210/  7/ 11   N/A
BURNS HARBOR               67     260/ 14/ 26 1007.5F
MICHIGAN CITY              68     210/ 20/ 26   N/A
MICHIGAN CITY 6N           68 73  240/ 19/ 29   N/A           3/ 4
ST. JOSEPH                 71 73  250/ 14/ 23   N/A           6/ 5
$$

ILZ025>027-034>036-040-047-049-050-058-095>099-030700-
WEST-CENTRAL ILLINOIS

CITY           SKY/WX    TMP DP  RH WIND       PRES   REMARKS
QUINCY         CLOUDY    76  56  49 W6        29.80R
MACOMB*        PTCLDY    72  68  86 W7        29.81S
$$

ILZ028>032-037-038-041>044-048-051>054-059>061-030700-
CENTRAL ILLINOIS

CITY           SKY/WX    TMP DP  RH WIND       PRES   REMARKS
DECATUR        PTCLDY    77  68  73 SW7       29.80S
PEORIA         CLEAR     80  71  74 W8        29.77R HX  84
6HR MIN TEMP:  80; 6HR MAX TEMP:  88;

SPRINGFIELD    MOCLDY    78  70  76 SW6       29.79S HX  80
6HR MIN TEMP:  78; 6HR MAX TEMP:  87;

TAYLORVILLE    NOT AVBL
$$

ILZ033-039-045-046-055>057-062-063-030700-
EAST-CENTRAL ILLINOIS

CITY           SKY/WX    TMP DP  RH WIND       PRES   REMARKS
CHAMPAIGN      PTCLDY    75  70  84 SW8       29.80S
MATTOON        PTCLDY    76  71  85 S8        29.81F
$$

ILZ079-100>102-030700-
SOUTHWEST ILLINOIS

CITY           SKY/WX    TMP DP  RH WIND       PRES   REMARKS
CAHOKIA*       CLOUDY    82  70  66 SW5       29.84F HX  86
$$

ILZ064>066-069>071-074>076-080>082-084>086-088>090-092>094-030700-
SOUTH-CENTRAL ILLINOIS

CITY           SKY/WX    TMP DP  RH WIND       PRES   REMARKS
CARBONDALE     PTCLDY    75  70  84 SW5       29.88R
6HR MIN TEMP:  75; 6HR MAX TEMP:  86;

MT. VERNON     PTCLDY    77  68  73 SW7       29.86F
SALEM*         MOCLDY    79  72  77 SW6       29.85F HX  83
$$

ILZ067-068-072-073-078-083-087-091-030700-
SOUTHEAST ILLINOIS

CITY           SKY/WX    TMP DP  RH WIND       PRES   REMARKS
LAWRENCEVILLE  CLEAR     74  71  91 S8        29.85F
HARRISBURG*    CLEAR     75  73  92 CALM      29.89S
$$

ABBREVIATIONS USED IN REMARKS
   TC - TEMPERATURE IN CELSIUS
  WCI - WIND CHILL INDEX
   HX - HEAT INDEX
  VSB - VISIBILITY
$$



USA.gov is the U.S. government's official web portal to all federal, state and local government web resources and services.